This demonstration page uses our WeatherBlox Daily Observations layout. Learn more.

Hourly Observations for December 20, 2016

Temp ( °F °C ) Dew Point ( °F °C ) Humidity (%) Winds ( mph kmh ) Pressure ( in mb ) Visibility ( mi km ) Precip ( " mm )
12:54 am 00:54 Clear 23 -5 14 -10 68 68 SSW 16 26 30.2 1023 10 16.0934 0 0
1:54 am 01:54 Clear 24 -4.4 14 -10 65 65 SSW 14 22 30.21 1023 10 16.0934 0 0
2:54 am 02:54 Clear 25 -3.9 15 -9.4 66 66 SSW 9 15 30.22 1023 10 16.0934 0 0
3:54 am 03:54 Clear 25 -3.9 16 -8.9 69 69 SW 10 17 30.24 1024 10 16.0934 0 0
4:54 am 04:54 Clear 25 -3.9 17 -8.3 72 72 SSW 6 9 30.26 1025 10 16.0934 0 0
5:54 am 05:54 Clear 24 -4.4 17 -8.3 75 75 SW 6 9 30.27 1025 10 16.0934 0 0
6:54 am 06:54 Clear 24 -4.4 17 -8.3 75 75 SSW 6 9 30.3 1026 10 16.0934 0 0
7:54 am 07:54 Sunny 23 -5 17 -8.3 78 78 SW 3 6 30.32 1027 10 16.0934 0 0
8:54 am 08:54 Sunny 24 -4.4 18 -7.8 77 77 S 3 6 30.33 1027 10 16.0934 0 0
9:54 am 09:54 Sunny 28 -2.2 21 -6.1 75 75 SSW 5 7 30.34 1027 10 16.0934 0 0
10:54 am 10:54 Sunny 34 1.1 23 -5 64 64 Calm 30.33 1027 10 16.0934 0 0
11:54 am 11:54 Sunny 37 2.8 25 -3.9 62 62 W 6 9 30.33 1027 10 16.0934 0 0
12:54 pm 12:54 Sunny 43 6.1 26 -3.3 51 51 Calm 30.29 1026 10 16.0934 0 0
1:54 pm 13:54 Sunny 44 6.7 27 -2.8 51 51 SSW 5 7 30.27 1025 10 16.0934 0 0
2:54 pm 14:54 Sunny 45 7.2 27 -2.8 49 49 SW 5 7 30.25 1024 10 16.0934 0 0
3:54 pm 15:54 Sunny 42 5.6 26 -3.3 53 53 SSW 5 7 30.24 1024 10 16.0934 0 0
4:54 pm 16:54 Sunny 35 1.7 25 -3.9 67 67 SSE 5 7 30.23 1024 10 16.0934 0 0
5:54 pm 17:54 Clear 32 0 24 -4.4 73 73 S 7 11 30.23 1024 10 16.0934 0 0
6:54 pm 18:54 Clear 32 0 25 -3.9 75 75 S 6 9 30.22 1023 10 16.0934 0 0
7:54 pm 19:54 Clear 31 -0.6 26 -3.3 82 82 Calm 30.21 1023 10 16.0934 0 0
8:54 pm 20:54 Clear 29 -1.7 26 -3.3 89 89 SSE 6 9 30.2 1023 10 16.0934 0 0
9:54 pm 21:54 Clear 27 -2.8 25 -3.9 92 92 S 6 9 30.18 1022 10 16.0934 0 0
10:54 pm 22:54 Clear 29 -1.7 26 -3.3 89 89 SSE 6 9 30.16 1021 10 16.0934 0 0
11:54 pm 23:54 Clear 25 -3.9 22 -5.6 88 88 SSE 9 15 30.12 1020 10 16.0934 0 0

Powered by AerisWeather